Regional Weather Roundup
Issued by NWS

Home | Current Version | Previous Version | Text Only | Print | Product List | Glossary Off
Versions: 1 2 3 4 5 6 7 8 9 10 11 12 13 14 15 16 17 18 19 20 21 22 23 24 25 26 27 28 29 30 31 32 33 34 35 36 37 38 39 40 41 42 43 44 45 46 47 48 49 50

000
ASUS43 KLSX 012159
RWRMO

WEATHER SUMMARY FOR MISSOURI
NATIONAL WEATHER SERVICE SPRINGFIELD MO
500 PM CDT WED OCT 01 2014

NOTE: "FAIR" INDICATES FEW OR NO CLOUDS BELOW 12,000 FEET WITH NO
       SIGNIFICANT WEATHER AND/OR OBSTRUCTIONS TO VISIBILITY.
       CURRENT SKY AND/OR WEATHER CONDITIONS ARE NOT AVAILABLE FOR
       CHILLICOTHE AND FARMINGTON.

MOZ001>031-035>038-043-044-053-054-012300-
...NORTHERN AND WESTERN MISSOURI...

CITY           SKY/WX    TMP DP  RH WIND       PRES   REMARKS
KANSAS CTY INT PTSUNNY   78  68  71 SE5       29.73R
KANSAS C DTWN  PTSUNNY   79  69  71 E7        29.70R
LEE`S SUMMIT   PTSUNNY   72  68  87 E9        29.75R
ST JOSEPH      PTSUNNY   78  67  68 SE7       29.71F
CHILLICOTHE      N/A     72  67  84 SE5       29.76F
KIRKSVILLE     PTSUNNY   68  66  93 SE7       29.78F FOG

$$
MOZ066>068-077>081-088>096-101>105-012300-
...SOUTHWEST MISSOURI...

CITY           SKY/WX    TMP DP  RH WIND       PRES   REMARKS
SPRINGFIELD    MOSUNNY   83  65  54 S13       29.76F
JOPLIN         CLOUDY    81  66  60 S14       29.74R THUNDER

$$
MOZ032>034-039>042-045>050-055>058-069>072-012300-
...CENTRAL MISSOURI...

CITY           SKY/WX    TMP DP  RH WIND       PRES   REMARKS
COLUMBIA       TSTM      69  66  90 W16       29.80R FOG
JEFFERSON CITY CLOUDY    81  65  58 VRB3      29.73S THUNDER
ROLLA          PTSUNNY   86  61  42 S15       29.77F
SEDALIA        PTSUNNY   69  65  86 E12G18    29.76F
OSAGE BEACH    PTSUNNY   84  63  48 S10       29.74F

$$
MOZ051-052-059>065-012300-
...EAST CENTRAL MISSOURI...

CITY           SKY/WX    TMP DP  RH WIND       PRES   REMARKS
ST LOUIS INTL  PTSUNNY   87  62  43 SE15      29.79F
SPIRIT OF STL  MOSUNNY   84  63  49 VRB5      29.76F
ST CHARLES     MOSUNNY   85  63  47 SE13      29.77F

$$
MOZ072>076-082>087-097>100-106>115-012300-
...SOUTH CENTRAL AND SOUTHEAST MISSOURI...

CITY           SKY/WX    TMP DP  RH WIND       PRES   REMARKS
CAPE GIRARDEAU MOSUNNY   84  62  47 S9        29.85R
FARMINGTON     SUNNY     84  64  51 S13       29.87S
POPLAR BLUFF   MOSUNNY   84  62  47 S12       29.83R
WEST PLAINS    PTSUNNY   82  66  58 SE10      29.85R

$$



USA.gov is the U.S. government's official web portal to all federal, state and local government web resources and services.